859  
ASUS42 KMLB 280410  
RWRMLB  
HOURLY WEATHER ROUNDUP AROUND FLORIDA  
NATIONAL WEATHER SERVICE OFFICE MELBOURNE FL  
1100 PM EST SUN NOV 27 2022  
 
CITY SKY/WX TMP DP RH WIND PRES REMARKS
 
MELBOURNE MOCLDY 75 72 90 SW8 29.98R  
FORT PIERCE PTCLDY 69 68 96 CALM 30.00R  
ORLANDO INTL CLOUDY 71 69 93 NW8 30.01R  
DAYTONA BEACH CLEAR 69 63 81 SW8 29.98R  
VERO BEACH CLEAR 74 72 93 W6 30.00S  

   
..ELSEWHERE ACROSS CENTRAL FLORIDA
 
 
 
CITY SKY/WX TMP DP RH WIND PRES REMARKS
 
PATRICK AFB PTCLDY 76 72 87 SW9 29.96S  
KSC PTCLDY 73 68 84 NW6 29.96S  
CAPE CANAVERAL PTCLDY 77 71 84 W7 29.96R  
SEBASTIAN FAIR 73 70 91 SW3 30.00S  
ORLANDO EXEC CLOUDY 71 68 90 W7 30.00R  
LEESBURG CLEAR 67 63 87 SW3 30.01R  
SANFORD PTCLDY 69 66 90 W7 29.99R  
DELAND CLEAR 69 61 76 SW7 30.00S  
WINTER HAVEN CLOUDY 71 68 90 NW6 30.02S  
KISSIMMEE CLOUDY 72 70 94 NW9 30.01S  
OKEECHOBEE MOCLDY 72 72 100 CALM 29.99S  
TAMPA PTCLDY 69 66 90 CALM 30.01R  

   
..NORTHERN FLORIDA
 
 
 
CITY SKY/WX TMP DP RH WIND PRES REMARKS
 
PALM COAST N/A 66 63 88 SW5 29.98R  
ST AUGUSTINE CLEAR 64 61 90 SW7 29.97R  
OCALA CLEAR 63 61 93 W3 N/A  
GAINESVILLE CLEAR 61 57 87 SW9 30.00S  
JACKSONVILLE PTCLDY 61 55 81 SW7 29.94R  
TALLAHASSEE CLEAR 51 48 89 CALM 29.97R  

   
..ALONG THE SOUTHEAST COAST TO THE KEYS
 
 
 
CITY SKY/WX TMP DP RH WIND PRES REMARKS
 
STUART PTCLDY 75 69 81 W6 30.01S  
WEST PALM BCH PTCLDY 74 70 87 SW5 30.01S  
MIAMI MOCLDY 77 73 87 W3 30.02S  
KEY WEST PTCLDY 77 75 93 CALM 30.02S  

   
..MARINE REPORTS
 
 
 
STATION/POSITION TIME TEMP WIND PRES WAVE SWELL
 
AIR SEA DIR/SP/G HT/PER HT/PER  
(UTC) (F) (DEG/KT/KT) (MB) (FT/S) (FT/S)  
ST AUGUSTINE FP 0400 66 65 240/ 5/ 7 1014.7R  
20NM E CAPE CANA 0350 240/ 12/ 16 1013.7R 3/10 2/10  
120 E NEW SMYRNA 0350 78 78 200/ 14/ 17 1014.8R 4/10 3/10  
TRIDENT PIER 0330 76 77 250/ 9/ 12 1014.0R  
4NM E PORT CANAV 0356 74 N/A 2/10  
SETTLEMENT PT GB 0400 80 200/ 11/ 13 1016.2F  

 
 
 
CLICK HERE TO GO TO PREVIOUS BULLETINS.

The Nexlab FL Page Main Text Page